Stations météo

réclame
Mon MeteoGroup
Figari, France (7780): Température de l'air & dewpoint: 17.09.2017 21:00:00 - 23.09.2017 21:00:00 (CEST)Figari, France (7780): Température de l'air 5cm: 17.09.2017 21:00:00 - 23.09.2017 21:00:00 (CEST)Figari, France (7780): Vitesse du vent & gusts: 17.09.2017 21:00:00 - 23.09.2017 21:00:00 (CEST)Figari, France (7780): Direction du vent: 17.09.2017 21:00:00 - 23.09.2017 21:00:00 (CEST)Figari, France (7780): reduced air pressure: 17.09.2017 21:00:00 - 23.09.2017 21:00:00 (CEST)Figari, France (7780): visibility: 17.09.2017 21:00:00 - 23.09.2017 21:00:00 (CEST)Figari, France (7780): Ensoleillement: 17.09.2017 21:00:00 - 23.09.2017 21:00:00 (CEST)Figari, France (7780): Quantités de précipitations: 17.09.2017 21:00:00 - 23.09.2017 21:00:00 (CEST)
Date & Time tt [°C] td [°C] tt 5cm [°C] ff [km/h] ff [knt] fx [km/h] fx [knt] dd ppp [hPa] vv [km] sd [min] rr [mm]
23.09.2017 21:00:00 19,8 15,4 16,1 7 4 12 7 NE 1019,7 60 0 0,0
23.09.2017 20:00:00 20,4 15,2 16,8 4 2 13 7 NNE 1019,7 60 0 0,0
23.09.2017 19:00:00 22,7 15,5 22,1 6 4 12 6 NNE 1019,5 60 53 0,0
23.09.2017 18:00:00 24,8 15,7 25,8 5 3 16 9 SW 1019,6 57 46 0,0
23.09.2017 17:00:00 24,4 15,3 26,7 11 6 22 12 SW 1019,7 57 34 0,0
23.09.2017 16:00:00 24,7 15,3 25,9 10 5 24 13 NE 1019,8 60 0 0,0
23.09.2017 15:00:00 25,2 14,6 28,4 10 5 23 13 ENE 1020,0 60 40 0,0
23.09.2017 14:00:00 26,7 14,1 32,7 9 5 25 13 ESE 1020,1 60 56 0,0
23.09.2017 13:00:00 27,2 14,6 33,9 10 5 34 18 ENE 1020,4 60 60 0,0
23.09.2017 12:00:00 25,8 14,3 32,1 13 7 23 13 E 1021,0 60 58 0,0
23.09.2017 11:00:00 24,5 15,7 30,3 13 7 26 14 NE 1021,4 60 60 0,0
23.09.2017 10:00:00 23,2 16,0 26,5 14 8 28 15 ENE 1021,4 60 60 0,0
23.09.2017 09:00:00 21,1 16,1 17,6 11 6 23 12 ENE 1021,1 60 60 0,0
23.09.2017 08:00:00 17,9 15,7 13,3 11 6 16 9 ENE 1021,1 54 8 0,0
23.09.2017 07:00:00 16,5 14,7 12,3 10 6 16 9 NE 1021,0 60 0 0,0
23.09.2017 06:00:00 17,3 14,9 13,3 9 5 16 9 ENE 1020,8 60 0 0,0
23.09.2017 05:00:00 17,0 14,8 8,7 10 5 14 8 ENE 1020,7 60 0 0,0
23.09.2017 04:00:00 15,0 13,5 9,1 7 4 11 6 ENE 1021,1 60 0 0,2
23.09.2017 03:00:00 16,5 14,3 9,6 7 4 11 6 ENE 1021,3 60 0 0,0
23.09.2017 02:00:00 16,8 14,4 10,3 8 4 12 7 E 1021,5 60 0 0,0
23.09.2017 01:00:00 16,6 14,2 10,6 7 4 12 7 ENE 1021,4 60 0 0,0
23.09.2017 00:00:00 16,5 14,0 12,8 9 5 14 7 NE 1021,8 60 0 0,0
22.09.2017 23:00:00 16,8 14,1 13,9 9 5 16 8 NE 1021,8 60 0 0,0
22.09.2017 22:00:00 17,0 14,3 13,6 11 6 15 8 NE 1021,7 60 0 0,0
22.09.2017 21:00:00 17,5 14,6 14,0 9 5 14 8 NE 1021,6 60 0 0,0
22.09.2017 20:00:00 18,3 14,6 14,9 10 5 17 9 NE 1021,2 60 5 0,0
22.09.2017 19:00:00 21,5 15,1 20,2 11 6 22 12 E 1020,9 57 60 0,0
22.09.2017 18:00:00 23,4 14,1 25,7 11 6 24 13 ENE 1020,7 57 60 0,0
22.09.2017 17:00:00 24,5 13,7 27,5 15 8 24 13 ENE 1020,3 53 57 0,0
22.09.2017 16:00:00 23,8 13,1 26,5 13 7 23 12 ENE 1020,4 55 32 0,0
22.09.2017 15:00:00 23,9 12,8 25,8 10 5 19 11 E 1020,4 20 20 0,0
22.09.2017 14:00:00 25,6 13,4 - 9 5 18 10 E 1020,7 50 - -
22.09.2017 13:00:00 23,5 12,8 25,4 11 6 18 10 E 1021,1 58 25 0,0
22.09.2017 12:00:00 23,8 12,7 25,7 8 4 22 12 NE 1021,1 60 47 0,0
22.09.2017 11:00:00 23,4 13,3 30,9 10 5 19 10 E 1021,4 60 60 0,0
22.09.2017 10:00:00 22,2 13,0 25,1 13 7 21 11 ENE 1021,3 60 60 0,0
22.09.2017 09:00:00 19,2 12,7 11,5 10 5 14 7 ENE 1020,9 60 60 0,0
22.09.2017 08:00:00 8,5 8,2 2,2 5 3 6 3 NNE 1020,7 60 29 0,0
22.09.2017 07:00:00 4,9 3,9 1,8 2 1 7 4 N 1020,5 60 0 0,0
22.09.2017 06:00:00 5,3 4,7 1,8 4 2 7 4 NNE 1020,5 58 0 0,0
22.09.2017 05:00:00 5,5 4,9 1,7 4 2 6 4 NNE 1020,9 50 0 0,0
22.09.2017 04:00:00 6,1 5,4 2,1 2 1 9 5 NE 1020,5 56 0 0,0
22.09.2017 03:00:00 7,0 6,3 3,0 4 2 7 4 NE 1020,6 58 0 0,0
22.09.2017 02:00:00 8,1 7,2 3,8 5 3 10 5 NNE 1020,8 60 0 0,0
22.09.2017 01:00:00 8,6 7,8 4,7 5 3 8 4 NE 1020,7 60 0 0,0
22.09.2017 00:00:00 9,8 8,9 4,9 3 2 7 4 NNE 1020,3 60 0 0,0
21.09.2017 23:00:00 10,7 8,6 6,5 2 1 10 5 ESE 1020,2 60 0 0,0
21.09.2017 22:00:00 12,4 10,3 7,0 3 2 9 5 E 1020,1 60 0 0,0
21.09.2017 21:00:00 13,8 11,3 8,1 5 3 8 5 NNE 1019,7 60 0 0,0
21.09.2017 20:00:00 17,0 11,3 11,4 0 0 29 15 N 1019,1 60 11 0,0
21.09.2017 19:00:00 20,8 12,7 19,6 21 11 33 18 W 1018,8 47 60 0,0
21.09.2017 18:00:00 23,2 10,6 24,7 23 12 33 18 WSW 1018,7 28 60 0,0
21.09.2017 17:00:00 23,8 12,4 25,8 23 12 34 18 SW 1018,5 25 60 0,0
21.09.2017 16:00:00 23,9 11,6 31,3 23 12 34 18 SW 1019,0 27 60 0,0
21.09.2017 15:00:00 24,1 10,4 32,9 23 12 32 18 SW 1019,4 33 60 0,0
21.09.2017 14:00:00 24,3 10,2 32,1 17 9 32 18 SW 1019,6 39 60 0,0
21.09.2017 13:00:00 23,6 9,6 31,9 19 11 32 17 SSW 1020,0 45 60 0,0
21.09.2017 12:00:00 23,3 11,7 - 18 10 31 17 SW 1020,1 55 - 0,0
21.09.2017 11:00:00 22,6 11,3 30,6 18 10 30 16 SW 1020,1 60 60 0,0
21.09.2017 10:00:00 21,2 10,4 24,7 9 5 16 8 WSW 1019,9 60 60 0,0
21.09.2017 09:00:00 16,6 12,1 12,2 2 1 6 3 N 1019,8 58 60 0,0
21.09.2017 08:00:00 10,1 9,8 4,2 6 3 9 5 NE 1019,7 43 30 0,2
21.09.2017 07:00:00 7,7 7,3 3,8 7 4 8 5 NNE 1019,4 20 0 0,0
21.09.2017 06:00:00 7,9 7,5 4,2 4 2 8 4 NNE 1019,4 38 0 0,0
21.09.2017 05:00:00 8,8 8,0 4,7 4 2 7 4 S 1019,4 20 0 0,0
21.09.2017 04:00:00 9,4 8,3 5,1 3 1 8 4 WSW 1019,5 20 0 0,0
21.09.2017 03:00:00 10,6 10,0 6,0 5 3 10 5 WSW 1019,8 58 0 0,0
21.09.2017 02:00:00 13,2 11,3 8,0 8 4 15 8 W 1019,8 55 0 0,0
21.09.2017 01:00:00 14,6 12,1 11,8 11 6 21 11 WSW 1019,4 57 0 0,0
21.09.2017 00:00:00 15,3 12,1 13,8 16 9 26 14 SW 1019,2 59 0 0,0
20.09.2017 23:00:00 16,0 12,4 13,9 19 11 24 13 SW 1018,8 60 0 0,0
20.09.2017 22:00:00 16,4 12,2 14,7 19 10 26 14 SW 1018,5 60 0 0,0
20.09.2017 21:00:00 17,0 12,3 15,1 16 9 28 15 SW 1018,6 60 0 0,0
20.09.2017 20:00:00 17,4 12,5 16,0 19 10 30 16 W 1018,4 59 0 0,0
20.09.2017 19:00:00 19,3 12,8 18,7 19 10 35 19 WSW 1017,8 38 60 0,0
20.09.2017 18:00:00 20,8 12,5 22,9 25 14 40 22 WSW 1017,5 23 60 0,0
20.09.2017 17:00:00 22,0 13,1 24,3 23 13 39 21 WSW 1017,3 20 60 0,0
20.09.2017 16:00:00 22,5 12,4 29,9 26 14 45 24 WSW 1017,2 22 60 0,0
20.09.2017 15:00:00 22,6 12,5 30,9 28 15 42 23 WSW 1017,3 28 60 0,0
20.09.2017 14:00:00 22,4 12,3 30,1 29 16 44 24 SW 1017,4 32 60 0,0
20.09.2017 13:00:00 22,9 11,9 29,5 27 15 47 26 WSW 1017,2 40 60 0,0
20.09.2017 12:00:00 22,7 12,9 29,4 29 15 44 24 SW 1017,0 49 60 0,0
20.09.2017 11:00:00 22,9 10,3 28,3 23 13 36 20 WSW 1016,5 60 60 0,0
20.09.2017 10:00:00 21,2 8,5 25,6 13 7 19 11 SSW 1016,7 60 60 0,0
20.09.2017 09:00:00 19,1 10,4 17,8 5 3 34 18 ENE 1016,3 48 60 0,0
20.09.2017 08:00:00 15,1 8,3 7,8 14 7 17 9 W 1015,1 48 29 0,0
20.09.2017 07:00:00 14,2 9,2 9,4 15 8 24 13 SW 1015,3 60 0 0,0
20.09.2017 06:00:00 15,4 8,4 10,7 10 6 28 15 WSW 1014,6 60 0 0,0
20.09.2017 05:00:00 14,8 9,8 9,8 18 10 27 15 SSW 1014,6 60 0 0,0
20.09.2017 04:00:00 12,9 9,0 4,6 14 8 23 12 S 1014,7 60 0 0,0
20.09.2017 03:00:00 7,7 7,1 4,3 7 4 10 5 SSE 1015,1 58 0 0,0
20.09.2017 02:00:00 8,8 8,0 5,1 2 1 17 9 NNE 1015,3 60 0 0,0
20.09.2017 01:00:00 11,1 9,4 6,0 11 6 16 9 E 1015,4 60 0 0,2
20.09.2017 00:00:00 11,0 9,4 7,2 5 3 20 11 NE 1014,5 54 0 0,0
19.09.2017 23:00:00 12,4 10,6 9,2 8 5 18 10 NE 1014,0 58 0 0,0
19.09.2017 22:00:00 14,5 11,5 11,2 5 3 39 21 N 1013,5 54 0 0,4
19.09.2017 21:00:00 18,2 9,8 16,2 20 11 48 26 W 1013,2 20 0 0,0
19.09.2017 20:00:00 17,8 9,4 16,5 27 14 51 28 W 1012,8 49 0 0,0
19.09.2017 19:00:00 18,2 9,8 17,5 32 17 52 28 W 1012,5 47 7 0,0
19.09.2017 18:00:00 19,1 9,6 19,6 34 18 56 31 W 1012,6 44 24 0,0
19.09.2017 17:00:00 20,4 8,7 19,9 37 20 60 33 W 1012,5 20 49 0,0
19.09.2017 16:00:00 19,7 9,0 21,9 31 17 54 29 W 1012,7 31 27 0,0
19.09.2017 15:00:00 21,5 8,7 24,9 28 15 50 27 W 1013,0 32 54 0,0
19.09.2017 14:00:00 20,4 9,3 25,1 31 17 49 26 W 1013,5 36 52 0,0
19.09.2017 13:00:00 22,1 9,6 29,1 26 14 45 25 W 1013,3 41 60 0,0
19.09.2017 12:00:00 21,4 10,2 24,6 28 15 44 24 WNW 1013,6 48 55 0,0
19.09.2017 11:00:00 21,5 10,6 24,1 20 11 40 22 W 1013,4 52 58 0,0
19.09.2017 10:00:00 19,3 9,8 21,2 23 13 45 24 W 1013,2 45 46 0,0
19.09.2017 09:00:00 18,8 10,4 16,9 22 12 40 22 W 1013,0 60 60 0,0
19.09.2017 08:00:00 17,5 10,1 14,0 16 9 43 23 W 1012,8 54 32 0,0
19.09.2017 07:00:00 17,2 10,1 13,9 24 13 48 26 W 1012,5 60 0 0,0
19.09.2017 06:00:00 17,5 9,4 13,9 27 15 46 25 W 1012,3 60 0 0,0
19.09.2017 05:00:00 16,7 12,8 13,9 24 13 40 22 W 1012,7 60 0 0,0
19.09.2017 04:00:00 16,3 12,5 13,6 14 8 42 23 WSW 1013,2 60 0 0,0
19.09.2017 03:00:00 16,6 12,3 13,2 21 11 34 18 W 1013,4 60 0 0,0
19.09.2017 02:00:00 16,2 12,2 13,0 18 10 40 22 W 1013,5 60 0 0,0
19.09.2017 01:00:00 15,6 13,3 13,6 18 10 30 16 WSW 1013,6 60 0 0,0
19.09.2017 00:00:00 16,0 14,4 14,2 21 11 29 16 SW 1014,2 60 0 0,0
18.09.2017 23:00:00 15,9 14,6 14,7 16 9 28 15 SW 1014,1 60 0 1,1
18.09.2017 22:00:00 16,5 15,5 15,7 9 5 26 14 S 1014,6 60 0 0,8
18.09.2017 21:00:00 16,8 15,8 15,7 10 5 14 7 SW 1014,5 57 0 0,8
18.09.2017 20:00:00 16,9 15,6 15,9 10 6 22 12 SSW 1014,4 20 0 1,4
18.09.2017 19:00:00 17,5 15,7 16,1 4 2 31 17 SSW 1014,1 20 0 1,6
18.09.2017 18:00:00 18,6 14,5 16,1 15 8 31 17 WSW 1014,6 60 0 0,0
18.09.2017 17:00:00 18,8 14,3 16,1 11 6 42 23 W 1014,6 60 0 0,2
18.09.2017 16:00:00 17,4 14,5 16,2 16 9 28 15 NW 1015,5 31 0 3,3
18.09.2017 15:00:00 18,0 16,8 17,5 11 6 34 19 WNW 1016,1 2,5 0 3,2
18.09.2017 14:00:00 20,7 17,9 18,7 19 10 37 20 W 1016,4 33 0 0,2
18.09.2017 13:00:00 22,2 16,2 24,2 24 13 41 22 WSW 1016,9 49 9 0,0
18.09.2017 12:00:00 24,6 15,2 33,1 27 15 43 23 SW 1017,0 50 60 0,0
18.09.2017 11:00:00 23,9 13,4 23,5 20 11 32 17 SW 1017,0 60 50 0,0
18.09.2017 10:00:00 20,9 11,0 21,0 10 6 18 10 SSW 1017,4 60 13 0,0
18.09.2017 09:00:00 20,8 11,1 10,8 13 7 22 12 WSW 1017,1 60 33 0,0
18.09.2017 08:00:00 11,4 8,8 5,9 3 1 10 6 WSW 1017,3 59 4 0,0
18.09.2017 07:00:00 9,7 7,0 5,9 3 2 6 4 NNE 1017,3 60 0 0,0
18.09.2017 06:00:00 10,9 7,6 6,4 2 1 8 4 ESE 1017,1 60 0 0,0
18.09.2017 05:00:00 13,2 8,5 7,4 4 2 18 10 WNW 1017,4 60 0 0,0
18.09.2017 04:00:00 15,9 9,1 10,4 3 2 22 12 NNW 1017,5 60 0 0,0
18.09.2017 03:00:00 18,3 10,6 13,4 11 6 24 13 NW 1017,9 60 0 0,0
18.09.2017 02:00:00 18,4 10,5 15,0 11 6 33 18 W 1018,4 60 0 0,0
18.09.2017 01:00:00 18,2 10,3 15,2 19 11 37 20 W 1018,3 60 0 0,0
18.09.2017 00:00:00 18,2 10,6 15,2 15 8 32 17 W 1018,2 60 0 0,0
17.09.2017 23:00:00 17,9 10,5 15,2 21 12 41 22 W 1018,4 60 0 0,0
17.09.2017 22:00:00 17,9 10,5 14,6 16 8 31 17 W 1018,7 60 0 0,0
17.09.2017 21:00:00 18,0 10,4 14,5 17 9 27 15 W 1018,5 60 0 0,0

tt = Température de l'air
td = dewpoint
tt 5cm = Température de l'air 5cm
ff = Vitesse du vent
fx = gusts
dd = Direction du vent
ppp = reduced air pressure
vv = visibility
sd = Ensoleillement
rr = Quantités de précipitations

stations d'obs. à proximité